Location: Habighorst
(52.7089°N, 10.2278°E)
Time: 09:00:51
(UTC+00:00)

Meteor 2-5 Rocket - Pass Details

Date: 13 January 2026
Orbit: 833 x 910 km, 81.2° (Epoch: 19 February)

Event Time Altitude Azimuth Distance (km) Brightness Sun altitude
Rises 06:17:40 0° 346° (NNW) 3,483 6.5 -9.7°
Reaches altitude 10° 06:20:06 10° 346° (NNW) 2,551 5.9 -9.4°
Maximum altitude 06:25:57 89° 257° (WSW) 902 3.9 -8.6°
Drops below altitude 10° 06:31:51 10° 170° (S) 2,577 6.8 -7.8°
Sets 06:34:18 0° 170° (S) 3,520 7.5 -7.4°
